Latest Coastal Weather Observations for Kingfish B

IDV60701

Issued at 8:11 pm EST Wednesday 27 May 2015 (issued every 10 minutes, with the page automatically refreshed every 10 minutes)

About coastal observations | Map of coastal stations | Coastal observations for VIC | Marine services | Other Formats
Station Details ID: 400139 Name: KINGFISH B (PLATFORM) Lat: -38.60 Lon: 148.19 Height: 31.4 m
Data from the previous 72 hours. | See also: Recent months for locations in Victoria
Date/Time
EST
Temp

°C
Wind Pressure Rain
since 9am
mm
Weather Cloud Vis
km
Sea
Height
m
Swell
Dir
 
Speed
knots
Gust
knots
hPa Trend Height
m
Period
s
Dir
27/06:50pm 16.4 N 9 11 1018.9 - - - - - - - - -
27/06:40pm 16.3 N 8 11 1018.9 - - - - - - - - -
27/06:30pm 16.3 N 8 10 1018.9 - - - - - - - - -
27/06:20pm 16.3 N 8 9 1018.9 - - - - - - - - -
27/06:10pm 16.3 N 7 9 1018.8 - - - - - - - - -
27/06:00pm 16.2 N 8 9 1018.8 - - - - - - - - -
27/05:50pm 16.2 NNE 9 9 1018.7 - - - - - - - - -
27/05:40pm 16.2 NNE 10 11 1018.6 - - - - - - - - -
27/05:30pm 16.2 NNE 9 10 1018.6 - - - - - - - - -
27/05:20pm 16.1 N 10 11 1018.6 - - - - - - - - -
27/05:10pm 16.1 N 9 11 1018.5 - - - - - - - - -
27/05:00pm 16.1 N 8 11 1018.5 - - - - - - - - -
27/04:50pm 16.0 N 8 9 1018.5 - - - - - - - - -
27/04:40pm 16.0 N 8 9 1018.5 - - - - - - - - -
27/04:30pm 16.0 N 6 9 1018.5 - - - - - - - - -
27/04:20pm 16.0 N 6 7 1018.5 - - - - - - - - -
27/04:10pm 16.0 N 5 7 1018.4 - - - - - - - - -
27/04:00pm 16.0 N 5 7 1018.3 - - - - - - - - -
27/03:50pm 16.0 N 6 8 1018.3 - - - - - - - - -
27/03:40pm 16.0 N 5 6 1018.3 - - - - - - - - -
27/03:30pm 15.9 N 5 6 1018.4 - - - - - - - - -
27/03:20pm 15.8 N 4 7 1018.4 - - - - - - - - -
27/03:10pm 15.9 N 2 5 1018.5 - - - - - - - - -
27/03:00pm 15.9 N 2 5 1018.5 - - - - - - - - -
27/02:50pm 15.9 N 3 6 1018.4 - - - - - - - - -
27/02:40pm 15.9 N 4 5 1018.4 - - - - - - - - -
27/02:30pm 15.8 N 4 6 1018.4 - - - - - - - - -
27/02:20pm 15.8 NNE 4 5 1018.4 - - - - - - - - -
27/02:10pm 15.9 NNE 3 5 1018.3 - - - - - - - - -
27/02:00pm 16.0 NNE 4 5 1018.3 - - - - - - - - -
27/01:50pm 15.9 NNE 4 6 1018.3 - - - - - - - - -
27/01:40pm 15.8 N 5 7 1018.3 - - - - - - - - -
27/01:30pm 15.7 N 4 6 1018.4 - - - - - - - - -
27/01:20pm 15.7 N 5 6 1018.3 - - - - - - - - -
27/01:10pm 15.7 N 4 6 1018.4 - - - - - - - - -
27/01:00pm 15.6 N 3 6 1018.5 - - - - - - - - -
27/12:50pm 15.6 N 3 5 1018.6 - - - - - - - - -
27/12:40pm 15.6 N 3 5 1018.7 - - - - - - - - -
27/12:30pm 15.7 N 3 5 1018.9 - - - - - - - - -
27/12:20pm 15.7 N 4 6 1019.0 - - - - - - - - -
27/12:10pm 15.7 N 5 6 1019.2 - - - - - - - - -
27/12:00pm 15.7 N 4 6 1019.3 - - - - - - - - -
27/11:50am 16.0 N 3 6 1019.4 - - - - - - - - -
27/11:40am 16.3 N 3 5 1019.6 - - - - - - - - -
27/11:30am 16.7 N 4 5 1019.7 - - - - - - - - -
27/11:20am 16.7 NNW 3 5 1019.9 - - - - - - - - -
27/11:10am 16.7 NNW 4 5 1020.0 - - - - - - - - -
27/11:00am 16.5 NNW 4 5 1020.1 - - - - - - - - -
27/10:50am 16.6 N 4 5 1020.2 - - - - - - - - -
27/10:40am 16.6 NNW 5 6 1020.4 - - - - - - - - -
27/10:30am 16.6 NNW 4 6 1020.5 - - - - - - - - -
27/10:20am 16.5 NW 4 5 1020.7 - - - - - - - - -
27/10:10am 16.4 NW 4 6 1020.9 - - - - - - - - -
27/10:00am 16.4 NW 4 6 1021.0 - - - - - - - - -
27/09:50am 16.3 NW 4 5 1021.0 - - - - - - - - -
27/09:40am 16.4 NW 5 6 1021.2 - - - - - - - - -
27/09:30am 16.3 NNW 5 6 1021.3 - - - - - - - - -
27/09:20am 16.1 NW 4 5 1021.3 - - - - - - - - -
27/09:10am 15.8 NW 4 5 1021.4 - - - - - - - - -
27/09:00am 15.7 NW 4 5 1021.6 - - - - - - - - -
27/08:50am 15.9 NW 4 6 1021.6 - - - - - - - - -
27/08:40am 15.9 NNW 4 6 1021.5 - - - - - - - - -
27/08:30am 15.9 NNW 4 6 1021.5 - - - - - - - - -
27/08:20am 15.8 NNW 5 7 1021.5 - - - - - - - - -
27/08:10am 15.3 NNW 6 8 1021.5 - - - - - - - - -
27/08:00am 15.0 N 4 6 1021.4 - - - - - - - - -
27/07:50am 15.1 N 4 7 1021.4 - - - - - - - - -
27/07:40am 15.0 N 5 6 1021.4 - - - - - - - - -
27/07:30am 15.0 NNE 4 6 1021.5 - - - - - - - - -
27/07:20am 15.1 - 2 4 1021.7 - - - - - - - - -
27/07:10am 15.2 NNW 2 4 1021.8 - - - - - - - - -
27/07:00am 14.7 NNW 2 3 1021.7 - - - - - - - - -
27/06:50am 14.4 N 1 4 1021.7 - - - - - - - - -
27/06:30am 14.4 N 2 4 1022.0 - - - - - - - - -
27/06:20am 14.4 N 3 5 1021.9 - - - - - - - - -
27/06:10am 14.4 N 3 5 1021.8 - - - - - - - - -
27/06:00am 14.5 - 3 5 1021.9 - - - - - - - - -
27/05:50am 14.6 N 3 5 1021.7 - - - - - - - - -
27/05:40am 14.6 NNE 4 5 1021.6 - - - - - - - - -
27/05:30am 14.5 NNE 4 5 1021.4 - - - - - - - - -
27/05:20am 14.5 NE 5 6 1021.3 - - - - - - - - -
27/05:10am 14.5 NE 5 6 1021.4 - - - - - - - - -
27/05:00am 14.4 NE 4 6 1021.6 - - - - - - - - -
27/04:50am 14.4 NNE 3 4 1021.6 - - - - - - - - -
27/04:40am 14.5 NNE 4 5 1021.8 - - - - - - - - -
27/04:20am 14.5 NNE 3 5 1021.9 - - - - - - - - -
27/04:10am 14.5 NNE 3 4 1021.9 - - - - - - - - -
27/04:00am 14.5 NNE 3 4 1021.8 - - - - - - - - -
27/03:50am 14.4 NNE 3 4 1021.7 - - - - - - - - -
27/03:40am 14.4 NE 4 5 1021.6 - - - - - - - - -
27/03:30am 14.3 NE 3 4 1021.6 - - - - - - - - -
27/03:20am 14.4 NE 2 3 1021.8 - - - - - - - - -
27/03:10am 14.5 NE 2 4 1021.9 - - - - - - - - -
27/03:00am 14.5 NE 3 5 1022.0 - - - - - - - - -
27/02:50am 14.5 NNE 4 6 1022.1 - - - - - - - - -
27/02:40am 14.5 NNE 5 6 1022.1 - - - - - - - - -
27/02:30am 14.5 NE 5 6 1022.3 - - - - - - - - -
27/02:20am 14.5 NE 5 7 1022.4 - - - - - - - - -
27/02:10am 14.4 NNE 5 6 1022.6 - - - - - - - - -
27/02:00am 14.3 NNE 4 6 1022.7 - - - - - - - - -
27/01:50am 14.4 NNE 5 7 1022.8 - - - - - - - - -
27/01:40am 14.4 NNE 5 8 1022.8 - - - - - - - - -
27/01:30am 14.5 NNE 6 8 1022.9 - - - - - - - - -
27/01:20am 14.4 NNE 6 8 1023.1 - - - - - - - - -
27/01:10am 14.4 NNE 6 8 1023.2 - - - - - - - - -
27/01:00am 14.4 NNE 7 8 1023.4 - - - - - - - - -
27/12:50am 14.4 NNE 7 8 1023.5 - - - - - - - - -
27/12:40am 14.4 NNE 6 8 1023.6 - - - - - - - - -
27/12:30am 14.4 N 7 9 1023.6 - - - - - - - - -
27/12:20am 14.5 NNE 7 8 1023.7 - - - - - - - - -
27/12:10am 14.5 NNE 6 8 1023.7 - - - - - - - - -
27/12:00am 14.4 NE 5 7 1023.6 - - - - - - - - -
 
Date/Time
EST
Temp

°C
Wind Pressure Rain
since 9am
mm
Weather Cloud Vis
km
Sea
Height
m
Swell
Dir
 
Speed
knots
Gust
knots
hPa Trend Height
m
Period
s
Dir
26/11:50pm 14.4 NNE 6 7 1023.7 - - - - - - - - -
26/11:40pm 14.4 NNE 5 7 1023.9 - - - - - - - - -
26/11:30pm 14.3 NNE 5 6 1024.1 - - - - - - - - -
26/11:20pm 14.3 NNE 4 6 1024.1 - - - - - - - - -
26/11:10pm 14.2 NE 4 5 1024.2 - - - - - - - - -
26/11:00pm 14.3 NE 4 5 1024.2 - - - - - - - - -
26/10:50pm 14.3 NE 5 7 1024.2 - - - - - - - - -
26/10:40pm 15.1 NE 5 7 1024.3 - - - - - - - - -
26/10:30pm 14.9 NE 4 6 1024.3 - - - - - - - - -
26/10:20pm 14.0 NE 4 6 1024.4 - - - - - - - - -
26/10:10pm 14.0 NE 3 5 1024.4 - - - - - - - - -
26/10:00pm 14.1 NE 3 5 1024.5 - - - - - - - - -
26/09:50pm 14.1 NE 3 5 1024.7 - - - - - - - - -
26/09:40pm 14.2 NE 3 4 1024.7 - - - - - - - - -
26/09:30pm 13.9 NE 3 5 1024.7 - - - - - - - - -
26/09:20pm 13.8 NE 3 5 1024.7 - - - - - - - - -
26/09:10pm 13.7 NE 4 5 1024.8 - - - - - - - - -
26/09:00pm 13.6 NE 3 4 1024.9 - - - - - - - - -
26/08:50pm 13.6 NE 2 4 1025.0 - - - - - - - - -
26/08:40pm 13.6 NE 2 3 1025.2 - - - - - - - - -
26/08:30pm 13.5 NE 1 3 1025.3 - - - - - - - - -
26/08:20pm 13.5 NE 1 2 1025.3 - - - - - - - - -
26/08:10pm 13.5 CALM 0 2 1025.4 - - - - - - - - -
26/08:00pm 13.5 CALM 0 1 1025.4 - - - - - - - - -
26/07:50pm 13.4 CALM 0 0 1025.4 - - - - - - - - -
26/07:40pm 13.4 CALM 0 2 1025.7 - - - - - - - - -
26/07:30pm 13.5 CALM 0 1 1025.8 - - - - - - - - -
26/07:20pm 13.5 CALM 0 1 1025.8 - - - - - - - - -
26/07:10pm 13.6 CALM 0 1 1025.8 - - - - - - - - -
26/07:00pm 13.7 CALM 0 1 1025.8 - - - - - - - - -
26/06:50pm 13.9 CALM 0 0 1025.9 - - - - - - - - -
26/06:40pm 14.2 CALM 0 1 1026.0 - - - - - - - - -
26/06:30pm 14.4 CALM 0 1 1026.0 - - - - - - - - -
26/06:20pm 15.0 CALM 0 1 1026.1 - - - - - - - - -
26/06:10pm 15.1 CALM 0 1 1026.1 - - - - - - - - -
26/06:00pm 15.1 NNW 1 2 1026.0 - - - - - - - - -
26/05:50pm 15.0 NW 1 2 1026.1 - - - - - - - - -
26/05:40pm 14.6 CALM 0 2 1026.0 - - - - - - - - -
26/05:30pm 14.7 CALM 0 1 1026.0 - - - - - - - - -
26/05:20pm 15.0 CALM 0 1 1026.0 - - - - - - - - -
26/05:10pm 15.0 CALM 0 1 1026.0 - - - - - - - - -
26/05:00pm 14.3 CALM 0 0 1025.9 - - - - - - - - -
26/04:50pm 13.9 CALM 0 0 1025.9 - - - - - - - - -
26/04:40pm 14.1 CALM 0 0 1025.9 - - - - - - - - -
26/04:30pm 14.3 CALM 0 0 1026.0 - - - - - - - - -
26/04:20pm 14.4 CALM 0 0 1025.9 - - - - - - - - -
26/04:10pm 14.2 CALM 0 0 1025.9 - - - - - - - - -
26/04:00pm 14.1 CALM 0 0 1025.8 - - - - - - - - -
26/03:50pm 14.7 CALM 0 0 1025.8 - - - - - - - - -
26/03:40pm 15.0 CALM 0 0 1026.0 - - - - - - - - -
26/03:30pm 15.3 CALM 0 1 1026.0 - - - - - - - - -
26/03:20pm 14.9 CALM 0 1 1026.0 - - - - - - - - -
26/03:10pm 14.8 CALM 0 1 1026.1 - - - - - - - - -
26/03:00pm 14.7 CALM 0 1 1026.1 - - - - - - - - -
26/02:50pm 14.4 CALM 0 1 1026.0 - - - - - - - - -
26/02:40pm 14.3 CALM 0 1 1026.0 - - - - - - - - -
26/02:30pm 14.3 W 1 2 1026.1 - - - - - - - - -
26/02:20pm 14.3 WSW 1 2 1026.0 - - - - - - - - -
26/02:10pm 14.3 WSW 1 2 1026.1 - - - - - - - - -
26/01:40pm 14.7 W 2 4 1026.2 - - - - - - - - -
26/01:30pm 14.9 W 3 4 1026.3 - - - - - - - - -
26/01:20pm 14.8 W 3 5 1026.3 - - - - - - - - -
26/01:10pm 14.9 W 3 4 1026.4 - - - - - - - - -
26/01:00pm 14.9 W 3 4 1026.5 - - - - - - - - -
26/12:50pm 15.0 W 4 5 1026.6 - - - - - - - - -
26/12:40pm 15.2 W 4 5 1026.6 - - - - - - - - -
26/12:30pm 15.1 W 4 6 1026.7 - - - - - - - - -
26/12:20pm 15.1 W 3 5 1026.8 - - - - - - - - -
26/12:10pm 15.3 W 3 6 1026.9 - - - - - - - - -
26/12:00pm 15.5 W 4 6 1027.0 - - - - - - - - -
26/11:40am 15.8 W 5 7 1027.4 - - - - - - - - -
26/11:30am 16.1 WNW 6 7 1027.5 - - - - - - - - -
26/11:10am 16.2 WNW 7 8 1027.7 - - - - - - - - -
26/11:00am 16.1 WNW 4 8 1027.8 - - - - - - - - -
26/10:20am 16.2 W 3 6 1028.5 - - - - - - - - -
26/10:10am 16.2 W 4 5 1028.7 - - - - - - - - -
26/10:00am 16.1 W 4 5 1028.8 - - - - - - - - -
26/09:50am 16.1 W 4 6 1028.9 - - - - - - - - -
26/09:40am 16.1 W 4 5 1029.0 - - - - - - - - -
26/09:30am 15.9 W 3 4 1028.9 - - - - - - - - -
26/09:20am 16.0 W 3 4 1029.0 - - - - - - - - -
26/09:10am 16.0 W 3 5 1029.0 - - - - - - - - -
26/09:00am 15.9 W 4 5 1029.1 - - - - - - - - -
26/08:50am 15.8 W 3 4 1029.1 - - - - - - - - -
26/08:40am 15.9 W 4 6 1029.2 - - - - - - - - -
26/08:30am 15.8 W 4 5 1029.2 - - - - - - - - -
26/08:20am 15.9 W 5 6 1029.2 - - - - - - - - -
26/08:10am 15.8 W 5 6 1029.2 - - - - - - - - -
26/08:00am 15.6 WNW 5 6 1029.2 - - - - - - - - -
26/07:50am 15.4 W 6 7 1029.2 - - - - - - - - -
26/07:40am 15.2 W 6 7 1029.2 - - - - - - - - -
26/07:30am 15.4 WNW 7 9 1029.2 - - - - - - - - -
26/07:20am 15.5 WNW 8 9 1029.3 - - - - - - - - -
26/07:10am 15.2 W 6 8 1029.3 - - - - - - - - -
26/06:50am 15.0 WNW 6 7 1029.1 - - - - - - - - -
26/06:30am 14.6 WNW 6 8 1028.9 - - - - - - - - -
26/06:20am 14.7 WNW 6 7 1028.9 - - - - - - - - -
26/06:10am 14.3 W 5 6 1028.9 - - - - - - - - -
26/06:00am 14.3 W 5 7 1028.8 - - - - - - - - -
26/05:50am 14.3 W 5 7 1028.7 - - - - - - - - -
26/05:40am 14.3 W 5 6 1028.8 - - - - - - - - -
26/05:30am 14.4 W 5 7 1028.7 - - - - - - - - -
26/05:20am 14.5 W 5 7 1028.6 - - - - - - - - -
26/05:10am 14.6 W 5 7 1028.4 - - - - - - - - -
26/05:00am 14.9 WNW 5 8 1028.4 - - - - - - - - -
26/04:40am 14.7 WNW 5 7 1028.3 - - - - - - - - -
26/04:30am 14.8 WNW 5 6 1028.3 - - - - - - - - -
26/04:20am 14.6 W 5 6 1028.3 - - - - - - - - -
26/04:00am 14.9 WNW 5 6 1028.3 - - - - - - - - -
26/03:40am 14.8 W 5 6 1028.4 - - - - - - - - -
26/03:30am 14.8 W 5 6 1028.4 - - - - - - - - -
26/03:20am 14.3 W 4 7 1028.4 - - - - - - - - -
26/03:10am 14.0 W 3 5 1028.4 - - - - - - - - -
26/03:00am 14.0 W 3 4 1028.5 - - - - - - - - -
26/02:50am 13.9 W 3 5 1028.5 - - - - - - - - -
26/02:40am 13.8 WSW 3 4 1028.5 - - - - - - - - -
26/02:20am 13.9 WSW 3 5 1028.7 - - - - - - - - -
26/02:10am 14.0 W 3 5 1028.8 - - - - - - - - -
26/02:00am 14.0 W 3 4 1028.8 - - - - - - - - -
26/01:50am 14.1 W 3 4 1028.8 - - - - - - - - -
26/01:40am 14.3 W 4 5 1028.9 - - - - - - - - -
26/01:30am 14.1 W 3 5 1028.8 - - - - - - - - -
26/01:20am 14.2 W 3 5 1028.9 - - - - - - - - -
26/01:10am 14.0 W 4 5 1028.8 - - - - - - - - -
26/01:00am 14.1 W 4 6 1028.8 - - - - - - - - -
26/12:50am 14.0 WSW 4 5 1028.8 - - - - - - - - -
26/12:40am 14.0 WSW 4 6 1028.8 - - - - - - - - -
26/12:30am 14.2 W 4 5 1028.8 - - - - - - - - -
26/12:20am 14.3 W 4 5 1028.9 - - - - - - - - -
26/12:10am 14.3 W 4 7 1028.9 - - - - - - - - -
26/12:00am 14.3 W 4 6 1029.0 - - - - - - - - -
 
Date/Time
EST
Temp

°C
Wind Pressure Rain
since 9am
mm
Weather Cloud Vis
km
Sea
Height
m
Swell
Dir
 
Speed
knots
Gust
knots
hPa Trend Height
m
Period
s
Dir
25/11:50pm 14.1 W 4 5 1029.0 - - - - - - - - -
25/11:40pm 14.3 W 3 5 1029.1 - - - - - - - - -
25/11:30pm 14.4 W 4 5 1029.2 - - - - - - - - -
25/11:20pm 14.5 W 4 6 1029.2 - - - - - - - - -
25/11:10pm 14.6 W 4 5 1029.3 - - - - - - - - -
25/11:00pm 14.9 W 4 6 1029.3 - - - - - - - - -
25/10:50pm 15.0 W 4 6 1029.4 - - - - - - - - -
25/10:40pm 14.7 W 4 5 1029.5 - - - - - - - - -
25/10:30pm 14.6 W 4 6 1029.5 - - - - - - - - -
25/10:20pm 14.7 W 4 6 1029.5 - - - - - - - - -
25/10:10pm 15.1 W 4 6 1029.5 - - - - - - - - -
25/10:00pm 14.9 W 4 6 1029.6 - - - - - - - - -
25/09:50pm 14.6 W 4 5 1029.7 - - - - - - - - -
25/09:40pm 14.6 W 4 6 1029.7 - - - - - - - - -
25/09:30pm 14.7 W 4 6 1029.7 - - - - - - - - -
25/09:20pm 14.5 W 3 5 1029.9 - - - - - - - - -
25/09:10pm 14.4 W 4 5 1029.9 - - - - - - - - -
25/09:00pm 14.4 W 4 5 1030.0 - - - - - - - - -
25/08:50pm 14.1 W 4 5 1030.1 - - - - - - - - -
25/08:40pm 14.2 W 4 6 1030.1 - - - - - - - - -
25/08:30pm 14.1 W 4 6 1030.1 - - - - - - - - -
25/08:20pm 14.1 W 4 5 1030.0 - - - - - - - - -
25/08:10pm 14.2 W 4 5 1029.9 - - - - - - - - -
25/08:00pm 14.0 W 4 5 1029.8 - - - - - - - - -
25/07:50pm 14.0 WSW 4 6 1029.8 - - - - - - - - -
25/07:40pm 14.0 WSW 4 6 1029.8 - - - - - - - - -
25/07:30pm 13.9 WSW 4 6 1029.7 - - - - - - - - -
25/07:20pm 13.8 WSW 4 5 1029.6 - - - - - - - - -
25/07:10pm 13.9 WSW 3 5 1029.7 - - - - - - - - -
25/07:00pm 13.9 W 4 5 1029.7 - - - - - - - - -
25/06:50pm 13.7 WSW 3 5 1029.6 - - - - - - - - -
25/06:40pm 13.7 WSW 3 4 1029.5 - - - - - - - - -
25/06:30pm 13.8 WSW 4 5 1029.5 - - - - - - - - -
25/06:20pm 13.7 WSW 3 5 1029.5 - - - - - - - - -
25/06:10pm 13.7 WSW 3 4 1029.4 - - - - - - - - -
25/06:00pm 13.8 WSW 3 4 1029.3 - - - - - - - - -
25/05:50pm 13.9 WSW 3 4 1029.3 - - - - - - - - -
25/05:40pm 13.9 WSW 4 6 1029.3 - - - - - - - - -
25/05:30pm 13.9 WSW 5 6 1029.2 - - - - - - - - -
25/05:20pm 13.9 WSW 4 5 1029.2 - - - - - - - - -
25/05:10pm 14.0 WSW 4 5 1029.1 - - - - - - - - -
25/05:00pm 14.0 WSW 4 6 1029.1 - - - - - - - - -
25/04:50pm 13.9 W 4 6 1029.1 - - - - - - - - -
25/04:40pm 13.7 W 4 6 1028.9 - - - - - - - - -
25/04:30pm 13.6 WSW 4 5 1028.9 - - - - - - - - -
25/04:20pm 13.6 WSW 5 6 1028.8 - - - - - - - - -
25/04:10pm 13.8 WSW 4 6 1028.7 - - - - - - - - -
25/04:00pm 13.9 WSW 4 6 1028.6 - - - - - - - - -
25/03:50pm 14.1 WSW 5 7 1028.7 - - - - - - - - -
25/03:30pm 14.1 WSW 4 5 1028.6 - - - - - - - - -
25/03:20pm 14.3 WSW 4 7 1028.7 - - - - - - - - -
25/03:10pm 14.4 WSW 5 6 1028.6 - - - - - - - - -
25/03:00pm 14.4 WSW 4 6 1028.6 - - - - - - - - -
25/02:50pm 14.6 WSW 4 7 1028.7 - - - - - - - - -
25/02:40pm 14.8 WSW 5 7 1028.8 - - - - - - - - -
25/02:30pm 14.9 WSW 6 8 1028.8 - - - - - - - - -
25/02:20pm 15.1 WSW 5 7 1028.9 - - - - - - - - -
25/09:00am 15.0 W 4 5 1031.0 - - - - - - - - -
25/08:50am 14.8 W 5 6 1030.9 - - - - - - - - -
25/08:40am 14.7 W 5 6 1031.0 - - - - - - - - -
25/08:30am 14.6 W 5 6 1030.9 - - - - - - - - -
25/08:20am 14.5 W 6 7 1031.0 - - - - - - - - -
25/08:10am 14.7 W 5 6 1031.0 - - - - - - - - -
25/08:00am 14.8 WNW 5 6 1030.9 - - - - - - - - -
25/07:50am 14.8 WNW 4 6 1030.9 - - - - - - - - -
25/07:40am 14.8 WNW 4 6 1030.7 - - - - - - - - -
25/07:30am 14.6 WNW 4 6 1030.7 - - - - - - - - -
25/07:20am 14.5 WNW 5 7 1030.6 - - - - - - - - -
25/07:10am 14.5 WNW 4 6 1030.5 - - - - - - - - -
25/07:00am 14.6 WNW 3 5 1030.5 - - - - - - - - -
25/06:50am 14.6 WNW 3 5 1030.4 - - - - - - - - -
25/06:40am 14.6 WNW 4 5 1030.5 - - - - - - - - -
25/06:30am 14.7 WNW 5 7 1030.4 - - - - - - - - -
25/06:20am 14.6 WNW 3 6 1030.3 - - - - - - - - -
25/06:10am 14.3 WNW 3 5 1030.4 - - - - - - - - -
25/06:00am 14.2 W 4 6 1030.5 - - - - - - - - -
25/05:50am 14.1 W 3 5 1030.4 - - - - - - - - -
25/05:40am 14.1 W 5 6 1030.5 - - - - - - - - -
25/05:30am 13.5 W 3 5 1030.4 - - - - - - - - -
25/05:20am 13.4 W 2 4 1030.2 - - - - - - - - -
25/05:10am 13.6 W 2 3 1030.2 - - - - - - - - -
25/05:00am 13.2 W 2 3 1030.2 - - - - - - - - -
25/04:50am 13.2 W 2 3 1030.2 - - - - - - - - -
25/04:40am 13.3 W 1 3 1030.1 - - - - - - - - -
25/04:30am 13.3 W 1 2 1029.9 - - - - - - - - -
25/04:20am 13.4 WSW 1 3 1029.9 - - - - - - - - -
25/04:10am 13.2 W 2 4 1030.0 - - - - - - - - -
25/04:00am 13.3 WSW 1 3 1029.9 - - - - - - - - -
25/03:50am 13.2 W 1 4 1029.9 - - - - - - - - -
25/03:40am 13.1 WSW 1 2 1029.8 - - - - - - - - -
25/03:00am 13.3 W 1 3 1029.8 - - - - - - - - -
25/02:50am 13.2 W 1 3 1029.8 - - - - - - - - -
25/02:40am 13.3 W 1 2 1029.9 - - - - - - - - -
25/02:30am 13.0 W 1 2 1029.9 - - - - - - - - -
25/02:20am 13.0 WSW 1 2 1029.8 - - - - - - - - -
25/12:20am 14.4 NW 1 3 1030.1 - - - - - - - - -
25/12:10am 14.3 CALM 0 2 1030.1 - - - - - - - - -
25/12:00am 14.5 NW 1 2 1030.2 - - - - - - - - -
 
Date/Time
EST
Temp

°C
Wind Pressure Rain
since 9am
mm
Weather Cloud Vis
km
Sea
Height
m
Swell
Dir
 
Speed
knots
Gust
knots
hPa Trend Height
m
Period
s
Dir
24/11:50pm 14.6 CALM 0 2 1030.3 - - - - - - - - -
24/11:40pm 14.4 NW 1 2 1030.3 - - - - - - - - -
24/11:30pm 14.3 NW 1 2 1030.3 - - - - - - - - -
24/11:10pm 14.4 WNW 1 3 1030.5 - - - - - - - - -
24/11:00pm 14.2 WNW 2 5 1030.7 - - - - - - - - -
24/10:50pm 14.0 NW 2 3 1030.7 - - - - - - - - -
24/10:40pm 14.2 NW 1 3 1030.7 - - - - - - - - -
24/10:30pm 14.2 NW 2 4 1030.7 - - - - - - - - -
24/10:20pm 13.2 NW 2 4 1030.6 - - - - - - - - -
24/10:10pm 12.8 NNW 2 4 1030.5 - - - - - - - - -
24/10:00pm 12.9 NNW 2 4 1030.4 - - - - - - - - -
24/09:50pm 12.7 N 2 5 1030.3 - - - - - - - - -
24/09:40pm 12.4 NNE 3 7 1030.2 - - - - - - - - -
24/09:30pm 12.3 NNE 4 6 1030.3 - - - - - - - - -
24/09:00pm 12.1 N 3 5 1030.5 - - - - - - - - -
24/08:50pm 12.0 N 3 6 1030.7 - - - - - - - - -
24/08:40pm 12.0 N 2 5 1030.7 - - - - - - - - -
24/08:30pm 11.9 N 3 6 1030.7 - - - - - - - - -
24/08:20pm 11.9 N 3 6 1030.8 - - - - - - - - -

Other Formats:

Comma delimited format used in spreadsheet applications
http://www.bom.gov.au/fwo/IDV60701/IDV60701.55039.axf

JavaScript Object Notation format (JSON) in row-major order
http://www.bom.gov.au/fwo/IDV60701/IDV60701.55039.json